When you browse on this site, cookies collect data to enhance your experience and personalize the content and advertising you see.
Visit our Privacy Policy to learn more. By continuing to use the site, you agree to this use of cookies and data.
  • En España
  • Lista de países
  • Para 7 días
  • Temperatura del agua
  • El tiempo en el mapa
  • Informadores
  • user-avatar
    Iniciar sesión

    Tiempo cada hora Asuan

    Hoy, 20 Febrero, Jueves

    Tiempo Temperatura Precipitaciones Viento Presión Humedad
    00:00 +13°C° 0 mm 4 mps 747 mmHg 45%
    01:00 +12°C° 0 mm 4 mps 747 mmHg 47%
    02:00 +12°C° 0 mm 4 mps 747 mmHg 48%
    03:00 +12°C° 0 mm 4 mps 747 mmHg 50%
    04:00 +11°C° 0 mm 4 mps 747 mmHg 51%
    05:00 +11°C° 0 mm 4 mps 747 mmHg 53%
    06:00 +12°C° 0 mm 4 mps 748 mmHg 51%
    07:00 +13°C° 0 mm 4 mps 748 mmHg 49%
    08:00 +14°C° 0 mm 5 mps 748 mmHg 45%
    09:00 +16°C° 0 mm 5 mps 748 mmHg 40%
    10:00 +19°C° 0 mm 5 mps 748 mmHg 35%
    11:00 +20°C° 0 mm 5 mps 748 mmHg 29%
    12:00 +21°C° 0 mm 5 mps 747 mmHg 26%
    13:00 +22°C° 0 mm 4 mps 746 mmHg 23%
    14:00 +23°C° 0 mm 4 mps 745 mmHg 19%
    15:00 +23°C° 0 mm 4 mps 745 mmHg 19%
    16:00 +24°C° 0 mm 3 mps 745 mmHg 19%
    17:00 +24°C° 0 mm 3 mps 745 mmHg 19%
    18:00 +21°C° 0 mm 3 mps 745 mmHg 21%
    19:00 +19°C° 0 mm 3 mps 745 mmHg 24%
    20:00 +17°C° 0 mm 3 mps 745 mmHg 27%
    21:00 +17°C° 0 mm 3 mps 745 mmHg 27%
    22:00 +17°C° 0 mm 3 mps 746 mmHg 28%
    23:00 +15°C° 0 mm 4 mps 746 mmHg 29%

    Mañana, 21 Febrero, Viernes

    Tiempo Temperatura Precipitaciones Viento Presión Humedad
    00:00 +16°C° 0 mm 3 mps 746 mmHg 31%
    01:00 +14°C° 0 mm 3 mps 745 mmHg 34%
    02:00 +13°C° 0 mm 3 mps 745 mmHg 37%
    03:00 +12°C° 0 mm 3 mps 745 mmHg 39%
    04:00 +12°C° 0 mm 3 mps 745 mmHg 40%
    05:00 +12°C° 0 mm 3 mps 745 mmHg 42%
    06:00 +13°C° 0 mm 3 mps 745 mmHg 39%
    07:00 +14°C° 0 mm 3 mps 746 mmHg 36%
    08:00 +17°C° 0 mm 3 mps 746 mmHg 32%
    15:00 +27°C° 0 mm 3 mps 743 mmHg 14%
    16:00 +27°C° 0 mm 3 mps 744 mmHg 13%
    17:00 +26°C° 0 mm 3 mps 744 mmHg 13%
    18:00 +23°C° 0 mm 4 mps 744 mmHg 16%
    19:00 +21°C° 0 mm 5 mps 744 mmHg 19%
    20:00 +19°C° 0 mm 5 mps 745 mmHg 21%
    21:00 +19°C° 0 mm 5 mps 745 mmHg 23%
    22:00 +17°C° 0 mm 5 mps 745 mmHg 24%
    23:00 +16°C° 0 mm 5 mps 745 mmHg 26%

    Pasado mañana, 22 Febrero, Sábado

    Tiempo Temperatura Precipitaciones Viento Presión Humedad
    00:00 +16°C° 0 mm 5 mps 745 mmHg 28%
    01:00 +15°C° 0 mm 5 mps 745 mmHg 30%
    02:00 +14°C° 0 mm 4 mps 745 mmHg 33%
    03:00 +14°C° 0 mm 4 mps 745 mmHg 36%
    04:00 +13°C° 0 mm 4 mps 745 mmHg 40%
    05:00 +13°C° 0 mm 4 mps 745 mmHg 43%
    06:00 +13°C° 0 mm 5 mps 746 mmHg 43%
    07:00 +14°C° 0 mm 6 mps 746 mmHg 43%
    08:00 +15°C° 0 mm 6 mps 747 mmHg 43%
    09:00 +17°C° 0 mm 5 mps 747 mmHg 39%
    10:00 +20°C° 0 mm 5 mps 747 mmHg 34%
    11:00 +21°C° 0 mm 4 mps 747 mmHg 29%
    12:00 +23°C° 0 mm 4 mps 746 mmHg 25%
    13:00 +25°C° 0 mm 4 mps 745 mmHg 21%
    14:00 +26°C° 0 mm 3 mps 745 mmHg 17%
    15:00 +26°C° 0 mm 4 mps 745 mmHg 17%
    16:00 +25°C° 0 mm 4 mps 745 mmHg 17%
    17:00 +25°C° 0 mm 5 mps 745 mmHg 17%
    18:00 +22°C° 0 mm 5 mps 745 mmHg 19%
    19:00 +20°C° 0 mm 5 mps 746 mmHg 21%
    20:00 +17°C° 0 mm 5 mps 746 mmHg 22%
    21:00 +16°C° 0 mm 5 mps 746 mmHg 26%
    22:00 +15°C° 0 mm 5 mps 746 mmHg 29%
    23:00 +14°C° 0 mm 5 mps 747 mmHg 33%

    23 Febrero, Domingo

    Tiempo Temperatura Precipitaciones Viento Presión Humedad
    00:00 +14°C° 0 mm 4 mps 746 mmHg 36%
    01:00 +13°C° 0 mm 4 mps 746 mmHg 38%
    02:00 +13°C° 0 mm 4 mps 746 mmHg 41%
    03:00 +12°C° 0 mm 4 mps 746 mmHg 41%
    04:00 +12°C° 0 mm 4 mps 746 mmHg 42%
    05:00 +12°C° 0 mm 4 mps 746 mmHg 43%
    06:00 +13°C° 0 mm 5 mps 746 mmHg 42%
    07:00 +13°C° 0 mm 5 mps 746 mmHg 40%
    08:00 +14°C° 0 mm 5 mps 747 mmHg 39%
    09:00 +16°C° 0 mm 5 mps 747 mmHg 35%
    10:00 +18°C° 0 mm 4 mps 746 mmHg 31%
    11:00 +20°C° 0 mm 4 mps 746 mmHg 27%
    12:00 +21°C° 0 mm 4 mps 746 mmHg 25%
    13:00 +22°C° 0 mm 3 mps 745 mmHg 22%
    14:00 +24°C° 0 mm 3 mps 744 mmHg 20%
    15:00 +23°C° 0 mm 4 mps 744 mmHg 20%
    16:00 +23°C° 0 mm 4 mps 744 mmHg 20%
    17:00 +22°C° 0 mm 4 mps 744 mmHg 21%
    18:00 +21°C° 0 mm 5 mps 744 mmHg 24%
    19:00 +19°C° 0 mm 6 mps 745 mmHg 27%
    20:00 +16°C° 0 mm 7 mps 745 mmHg 30%
    21:00 +16°C° 0 mm 6 mps 745 mmHg 32%
    22:00 +15°C° 0 mm 5 mps 745 mmHg 34%
    23:00 +14°C° 0 mm 5 mps 745 mmHg 35%

    24 Febrero, Lunes

    Tiempo Temperatura Precipitaciones Viento Presión Humedad
    00:00 +14°C° 0 mm 5 mps 745 mmHg 37%
    01:00 +13°C° 0 mm 5 mps 745 mmHg 38%
    02:00 +13°C° 0 mm 4 mps 745 mmHg 39%
    03:00 +12°C° 0 mm 5 mps 745 mmHg 42%
    04:00 +12°C° 0 mm 5 mps 745 mmHg 45%
    05:00 +10°C° 0 mm 6 mps 745 mmHg 48%
    06:00 +11°C° 0 mm 6 mps 746 mmHg 48%
    07:00 +11°C° 0 mm 6 mps 746 mmHg 48%
    08:00 +11°C° 0 mm 6 mps 747 mmHg 48%
    09:00 +14°C° 0 mm 7 mps 747 mmHg 41%
    10:00 +16°C° 0 mm 7 mps 747 mmHg 34%
    11:00 +17°C° 0 mm 7 mps 747 mmHg 27%
    12:00 +18°C° 0 mm 7 mps 746 mmHg 26%
    13:00 +20°C° 0 mm 8 mps 746 mmHg 24%
    14:00 +20°C° 0 mm 8 mps 745 mmHg 22%
    15:00 +20°C° 0 mm 8 mps 745 mmHg 24%
    16:00 +18°C° 0 mm 8 mps 745 mmHg 26%
    17:00 +18°C° 0 mm 8 mps 745 mmHg 28%
    18:00 +16°C° 0 mm 7 mps 746 mmHg 32%
    19:00 +15°C° 0 mm 6 mps 747 mmHg 35%
    20:00 +13°C° 0 mm 5 mps 747 mmHg 39%
    21:00 +13°C° 0 mm 4 mps 747 mmHg 41%
    22:00 +12°C° 0 mm 4 mps 748 mmHg 43%
    23:00 +11°C° 0 mm 4 mps 748 mmHg 46%

    25 Febrero, Martes

    Tiempo Temperatura Precipitaciones Viento Presión Humedad
    00:00 +11°C° 0 mm 4 mps 748 mmHg 47%
    01:00 +11°C° 0 mm 4 mps 748 mmHg 49%
    02:00 +11°C° 0 mm 4 mps 748 mmHg 50%
    03:00 +11°C° 0 mm 4 mps 748 mmHg 52%
    04:00 +9°C° 0 mm 5 mps 748 mmHg 53%
    05:00 +9°C° 0 mm 5 mps 748 mmHg 55%
    06:00 +10°C° 0 mm 5 mps 748 mmHg 54%
    07:00 +11°C° 0 mm 6 mps 748 mmHg 54%
    08:00 +13°C° 0 mm 6 mps 749 mmHg 54%
    09:00 +15°C° 0 mm 6 mps 748 mmHg 46%
    10:00 +19°C° 0 mm 6 mps 748 mmHg 37%
    11:00 +21°C° 0 mm 6 mps 748 mmHg 29%
    12:00 +22°C° 0 mm 5 mps 747 mmHg 26%
    13:00 +23°C° 0 mm 5 mps 746 mmHg 23%
    14:00 +25°C° 0 mm 4 mps 746 mmHg 20%
    15:00 +25°C° 0 mm 4 mps 746 mmHg 20%
    16:00 +25°C° 0 mm 4 mps 745 mmHg 20%
    17:00 +23°C° 0 mm 4 mps 745 mmHg 20%
    18:00 +22°C° 0 mm 4 mps 746 mmHg 22%
    19:00 +20°C° 0 mm 4 mps 746 mmHg 24%
    20:00 +18°C° 0 mm 3 mps 746 mmHg 27%
    21:00 +17°C° 0 mm 4 mps 746 mmHg 28%
    22:00 +17°C° 0 mm 4 mps 746 mmHg 29%
    23:00 +15°C° 0 mm 5 mps 746 mmHg 30%
    Mostrar más